Location: Newark
(40.3500°N, 15.2333°E)
Time: 11:36:43
(UTC+00:00)

Vanguard 1 - Pass Details

Date: 29 January 2020
Orbit: 650 x 3833 km, 34.2° (Epoch: 22 February)

Event Time Altitude Azimuth Distance (km) Brightness Sun altitude
Rises 14:16:26 0° 236° (SW) 3,689 14.7 17.6°
Reaches altitude 10° 14:19:42 10° 225° (SW) 2,429 14.8 17.2°
Maximum altitude 14:24:11 28° 166° (SSE) 1,279 11.2 16.6°
Drops below altitude 10° 14:27:58 10° 106° (ESE) 2,043 11.5 16.0°
Sets 14:30:28 0° 94° (E) 2,989 12.2 15.7°
